Taylor County (AAS)

 

Airport Diagram
No Airport Diagram Available
Current Weather/Forecast (VFR Conditions)
METAR KAAS 182355Z AUTO 00000KT 10SM OVC110 16/03 A2993 RMK AO1
TAF

Airport Information

All Charts
General
Chart Name View
TAKEOFF MINIMUMS
TAKEOFF MINIMUMS

Approaches
Chart Name Download
RNAV (GPS) RWY 05
RNAV (GPS) RWY 23
VOR/DME-A
RNAV (GPS) RWY 05
RNAV (GPS) RWY 23
VOR/DME-A


Airport Statistics
Departures Arrivals Local
All Collected Stats since June 2016: 7 8 0
2021 Stats: 3 2 0
April Stats: 2 1 0

Inbound Traffic (Arrivals) - 0

No inbound traffic.


Outbound Traffic (Departures) - 0

No outbound traffic.


Local Traffic (Pattern) - 0

No local traffic.